Find Starlink 30564

NORAD ID: 58043 Int'l Des: 2023-156 Owner: SPXS Country: US Constellation: starlink operational
LEOCIRCULAR

当前视图

正在加载3D地球...

About Starlink 30564

Starlink 30564 (NORAD 58043) is a starlink constellation satellite (v2 mini) launched Oct 9, 2023 by SPXS of US. It operates in LEO, CIRCULAR orbit with a mass of 730.00 kg.

关于 Starlink 30564

正在加载描述...

即将过境

Passes for default location (London). Set your location on the main map for personalized predictions.

高度历史

Loading altitude history...

两行轨道根数

1 58043U 23156R 26170.72252398 .00029603 00000-0 10074-2 0 9995
2 58043 53.1576 324.5565 0001164 58.7307 301.3807 15.30207219151932
Epoch: Jun 19, 2026 • Age: 7 hours

当前状态

高度 493.1 km
速度 7.62 km/s
星下点 -49.73°S, 74.14°W
发射日期 Oct 9, 2023
运行时间 2.6 years
类型 internet

技术详情

分类 Payload
质量 730.00 kg
干质量 700.00 kg
总质量 730.00 kg
长度 0.30 m
直径 4.10 m
跨度 29.00 m
形状 Box + pan
制造商 SPXS
平台类型 Starlink V2M
阶段状态 In Orbit
所有者/国家 SPXS/US

Most Searched